| time (UTC) | temp F | wind direction | speed MPH | gust MPH | rain 1hr in | rain 24hr in | rain mn in | humidity % | barometer mb |
| 20260510174553 | 67 | 293 | 0.0 | 3.0 | 0.00 | 0.52 | 0.06 | 76 | 1010.4 |
| 20260510174045 | 67 | 324 | 0.0 | 3.0 | 0.00 | 0.52 | 0.06 | 76 | 1010.5 |
| 20260510173559 | 67 | 114 | 0.0 | 1.0 | 0.00 | 0.52 | 0.06 | 79 | 1010.7 |
| 20260510173051 | 66 | 107 | 0.0 | 1.0 | 0.00 | 0.52 | 0.06 | 80 | 1010.6 |
| 20260510172544 | 66 | 119 | 0.0 | 1.0 | 0.01 | 0.52 | 0.06 | 79 | 1010.6 |
| 20260510172056 | 65 | 132 | 0.0 | 1.0 | 0.01 | 0.52 | 0.06 | 81 | 1010.5 |
| 20260510171606 | 65 | 100 | 0.0 | 1.0 | 0.01 | 0.52 | 0.06 | 80 | 1010.6 |
| 20260510171120 | 66 | 254 | 0.0 | 2.0 | 0.01 | 0.52 | 0.06 | 81 | 1010.6 |
| 20260510170551 | 65 | 211 | 0.0 | 2.0 | 0.01 | 0.52 | 0.06 | 81 | 1010.6 |
| 20260510170042 | 64 | 293 | 0.0 | 1.0 | 0.01 | 0.52 | 0.06 | 82 | 1010.4 |
| 20260510165616 | 64 | 286 | 0.0 | 2.0 | 0.01 | 0.52 | 0.06 | 83 | 1010.4 |
| 20260510165048 | 63 | 155 | 0.0 | 2.0 | 0.01 | 0.52 | 0.06 | 84 | 1010.5 |
| 20260510164540 | 63 | 183 | 0.0 | 2.0 | 0.01 | 0.52 | 0.06 | 86 | 1010.6 |
| 20260510164113 | 63 | 111 | 0.0 | 2.0 | 0.01 | 0.52 | 0.06 | 88 | 1010.7 |
| 20260510163544 | 62 | 121 | 0.0 | 1.0 | 0.01 | 0.52 | 0.06 | 89 | 1010.9 |
| 20260510163056 | 61 | 290 | 0.0 | 1.0 | 0.01 | 0.52 | 0.06 | 88 | 1010.9 |
| 20260510162548 | 61 | 280 | 0.0 | 1.0 | 0.00 | 0.51 | 0.05 | 89 | 1010.9 |
| 20260510162039 | 60 | 239 | 0.0 | 1.0 | 0.00 | 0.51 | 0.05 | 89 | 1010.9 |
| 20260510161555 | 60 | 269 | 0.0 | 1.0 | 0.00 | 0.51 | 0.05 | 90 | 1010.9 |
| 20260510161046 | 60 | 215 | 0.0 | 1.0 | 0.00 | 0.51 | 0.05 | 91 | 1010.8 |
| 20260510160558 | 60 | 127 | 0.0 | 1.0 | 0.00 | 0.51 | 0.05 | 91 | 1010.8 |
| 20260510160052 | 60 | 67 | 0.0 | 1.0 | 0.00 | 0.51 | 0.05 | 93 | 1010.8 |
| 20260510155543 | 59 | 234 | 0.0 | 1.0 | 0.00 | 0.51 | 0.05 | 93 | 1010.9 |
| 20260510155057 | 59 | 119 | 0.0 | 1.0 | 0.00 | 0.51 | 0.05 | 93 | 1010.8 |
| 20260510154609 | 59 | 203 | 0.0 | 1.0 | 0.00 | 0.51 | 0.05 | 94 | 1010.8 |
| 20260510154041 | 59 | 84 | 0.0 | 1.0 | 0.00 | 0.51 | 0.05 | 94 | 1010.8 |
| 20260510153611 | 58 | 240 | 0.0 | 1.0 | 0.00 | 0.51 | 0.05 | 95 | 1010.9 |
| 20260510153042 | 58 | 256 | 0.0 | 0.0 | 0.00 | 0.51 | 0.05 | 95 | 1011.1 |
| 20260510152556 | 58 | 198 | 0.0 | 0.0 | 0.00 | 0.51 | 0.05 | 96 | 1011.2 |
| 20260510152108 | 57 | 335 | 0.0 | 0.0 | 0.00 | 0.51 | 0.05 | 96 | 1011.3 |
| 20260510151541 | 57 | 198 | 0.0 | 0.0 | 0.00 | 0.51 | 0.05 | 96 | 1011.3 |
| 20260510151116 | 57 | 123 | 0.0 | 0.0 | 0.00 | 0.51 | 0.05 | 96 | 1011.3 |
| 20260510150547 | 57 | 246 | 0.0 | 0.0 | 0.00 | 0.51 | 0.05 | 96 | 1011.3 |
| 20260510150058 | 57 | 248 | 0.0 | 1.0 | 0.00 | 0.51 | 0.05 | 96 | 1011.2 |
| 20260510145548 | 56 | 277 | 0.0 | 4.0 | 0.00 | 0.51 | 0.05 | 97 | 1011.3 |
| 20260510145040 | 56 | 267 | 0.0 | 4.0 | 0.01 | 0.51 | 0.05 | 96 | 1011.2 |
| 20260510144553 | 56 | 230 | 0.0 | 1.0 | 0.01 | 0.51 | 0.05 | 97 | 1011.2 |
| 20260510144046 | 56 | 230 | 0.0 | 1.0 | 0.01 | 0.51 | 0.05 | 97 | 1011.1 |
| 20260510143558 | 56 | 228 | 0.0 | 1.0 | 0.01 | 0.51 | 0.05 | 97 | 1011.0 |
| 20260510143049 | 56 | 218 | 0.0 | 1.0 | 0.01 | 0.51 | 0.05 | 97 | 1010.9 |
| 20260510142602 | 55 | 218 | 0.0 | 0.0 | 0.01 | 0.51 | 0.05 | 97 | 1010.9 |
| 20260510142053 | 55 | 210 | 0.0 | 0.0 | 0.01 | 0.51 | 0.05 | 97 | 1010.8 |
| 20260510141543 | 55 | 273 | 0.0 | 0.0 | 0.01 | 0.51 | 0.05 | 97 | 1010.8 |
| 20260510141057 | 55 | 188 | 0.0 | 0.0 | 0.01 | 0.51 | 0.05 | 97 | 1010.9 |
| 20260510140549 | 55 | 140 | 0.0 | 0.0 | 0.01 | 0.51 | 0.05 | 97 | 1010.8 |
| 20260510140040 | 55 | 140 | 0.0 | 1.0 | 0.01 | 0.51 | 0.05 | 97 | 1010.8 |
| 20260510135554 | 55 | 140 | 0.0 | 1.0 | 0.01 | 0.51 | 0.05 | 97 | 1010.8 |
| 20260510135046 | 55 | 258 | 0.0 | 0.0 | 0.00 | 0.50 | 0.04 | 97 | 1010.7 |
| 20260510134600 | 55 | 258 | 0.0 | 0.0 | 0.00 | 0.50 | 0.04 | 97 | 1010.7 |
| 20260510134054 | 55 | 259 | 0.0 | 0.0 | 0.00 | 0.50 | 0.04 | 97 | 1010.8 |
| 20260510133602 | 54 | 259 | 0.0 | 0.0 | 0.00 | 0.50 | 0.04 | 97 | 1010.7 |
| 20260510133053 | 54 | 259 | 0.0 | 0.0 | 0.00 | 0.50 | 0.04 | 97 | 1010.6 |
| 20260510132543 | 54 | 261 | 0.0 | 0.0 | 0.00 | 0.50 | 0.04 | 97 | 1010.5 |
| 20260510132059 | 54 | 261 | 0.0 | 0.0 | 0.00 | 0.50 | 0.04 | 97 | 1010.6 |
| 20260510131549 | 54 | 260 | 0.0 | 0.0 | 0.00 | 0.50 | 0.04 | 97 | 1010.4 |
| 20260510131042 | 54 | 260 | 0.0 | 0.0 | 0.00 | 0.50 | 0.04 | 97 | 1010.4 |
| 20260510130558 | 54 | 261 | 0.0 | 0.0 | 0.00 | 0.50 | 0.04 | 97 | 1010.6 |
| 20260510130050 | 54 | 261 | 0.0 | 0.0 | 0.00 | 0.50 | 0.04 | 97 | 1010.6 |
| 20260510125542 | 54 | 261 | 0.0 | 0.0 | 0.00 | 0.50 | 0.04 | 97 | 1010.6 |
| 20260510125056 | 54 | 261 | 0.0 | 0.0 | 0.00 | 0.50 | 0.04 | 97 | 1010.6 |
| 20260510124546 | 54 | 261 | 0.0 | 0.0 | 0.00 | 0.50 | 0.04 | 97 | 1010.6 |
| 20260510124100 | 53 | 261 | 0.0 | 0.0 | 0.00 | 0.50 | 0.04 | 97 | 1010.4 |
| 20260510123552 | 53 | 261 | 0.0 | 1.0 | 0.00 | 0.50 | 0.04 | 97 | 1010.4 |
| 20260510123044 | 53 | 5 | 0.0 | 1.0 | 0.00 | 0.50 | 0.04 | 97 | 1010.4 |
| 20260510122556 | 53 | 48 | 0.0 | 0.0 | 0.00 | 0.50 | 0.04 | 97 | 1010.3 |
| 20260510122110 | 53 | 54 | 0.0 | 0.0 | 0.00 | 0.50 | 0.04 | 97 | 1010.2 |
| 20260510121601 | 53 | 54 | 0.0 | 0.0 | 0.00 | 0.50 | 0.04 | 97 | 1010.2 |
| 20260510121053 | 53 | 54 | 0.0 | 0.0 | 0.00 | 0.50 | 0.04 | 97 | 1010.2 |
| 20260510120544 | 53 | 54 | 0.0 | 0.0 | 0.00 | 0.50 | 0.04 | 97 | 1010.1 |
| 20260510120118 | 52 | 54 | 0.0 | 0.0 | 0.00 | 0.50 | 0.04 | 97 | 1010.1 |
| 20260510115546 | 52 | 54 | 0.0 | 0.0 | 0.00 | 0.50 | 0.04 | 97 | 1010.2 |
| 20260510115056 | 52 | 54 | 0.0 | 1.0 | 0.00 | 0.50 | 0.04 | 97 | 1010.1 |
| 20260510114549 | 52 | 54 | 0.0 | 1.0 | 0.00 | 0.50 | 0.04 | 97 | 1010.0 |
| 20260510114040 | 52 | 69 | 0.0 | 1.0 | 0.00 | 0.50 | 0.04 | 97 | 1009.8 |
| 20260510113553 | 52 | 69 | 0.0 | 0.0 | 0.00 | 0.50 | 0.04 | 97 | 1009.6 |
| 20260510113045 | 52 | 69 | 0.0 | 0.0 | 0.00 | 0.50 | 0.04 | 97 | 1009.5 |
| 20260510112600 | 52 | 69 | 0.0 | 0.0 | 0.00 | 0.50 | 0.04 | 97 | 1009.6 |
| 20260510112049 | 52 | 69 | 0.0 | 0.0 | 0.00 | 0.50 | 0.04 | 97 | 1009.6 |
| 20260510111543 | 51 | 69 | 0.0 | 0.0 | 0.00 | 0.50 | 0.04 | 97 | 1009.5 |
| 20260510111115 | 51 | 69 | 0.0 | 0.0 | 0.00 | 0.50 | 0.04 | 97 | 1009.5 |
| 20260510110547 | 51 | 69 | 0.0 | 0.0 | 0.01 | 0.50 | 0.04 | 97 | 1009.4 |
| 20260510110100 | 51 | 71 | 0.0 | 0.0 | 0.01 | 0.50 | 0.04 | 97 | 1009.5 |
| 20260510105551 | 51 | 71 | 0.0 | 0.0 | 0.01 | 0.50 | 0.04 | 97 | 1009.6 |
| 20260510105041 | 51 | 71 | 0.0 | 1.0 | 0.01 | 0.50 | 0.04 | 97 | 1009.5 |
| 20260510104617 | 51 | 71 | 0.0 | 1.0 | 0.01 | 0.50 | 0.04 | 97 | 1009.5 |
| 20260510104048 | 51 | 65 | 0.0 | 0.0 | 0.01 | 0.50 | 0.04 | 97 | 1009.5 |
| 20260510103541 | 51 | 65 | 0.0 | 0.0 | 0.01 | 0.50 | 0.04 | 97 | 1009.5 |
| 20260510103055 | 51 | 65 | 0.0 | 0.0 | 0.01 | 0.50 | 0.04 | 97 | 1009.4 |
| 20260510102609 | 51 | 65 | 0.0 | 0.0 | 0.01 | 0.50 | 0.04 | 97 | 1009.3 |
| 20260510102040 | 51 | 65 | 0.0 | 0.0 | 0.01 | 0.50 | 0.04 | 97 | 1009.3 |
| 20260510101554 | 51 | 65 | 0.0 | 1.0 | 0.01 | 0.50 | 0.04 | 97 | 1009.3 |
| 20260510101046 | 51 | 65 | 0.0 | 1.0 | 0.00 | 0.49 | 0.03 | 97 | 1009.4 |
| 20260510100558 | 51 | 71 | 0.0 | 1.0 | 0.00 | 0.49 | 0.03 | 97 | 1009.5 |
| 20260510100112 | 51 | 71 | 0.0 | 0.0 | 0.00 | 0.49 | 0.03 | 97 | 1009.4 |
| 20260510095544 | 51 | 74 | 0.0 | 0.0 | 0.00 | 0.49 | 0.03 | 97 | 1009.4 |
| 20260510095052 | 51 | 24 | 0.0 | 0.0 | 0.00 | 0.49 | 0.03 | 97 | 1009.2 |
| 20260510094606 | 51 | 24 | 0.0 | 0.0 | 0.00 | 0.49 | 0.03 | 97 | 1009.4 |
| 20260510094057 | 51 | 24 | 0.0 | 0.0 | 0.00 | 0.49 | 0.03 | 97 | 1009.5 |
| 20260510093550 | 51 | 24 | 0.0 | 0.0 | 0.00 | 0.49 | 0.03 | 97 | 1009.6 |
| 20260510093040 | 51 | 24 | 0.0 | 0.0 | 0.00 | 0.49 | 0.03 | 97 | 1009.6 |
| 20260510092554 | 51 | 24 | 0.0 | 0.0 | 0.00 | 0.49 | 0.03 | 97 | 1009.7 |
| 20260510092047 | 51 | 24 | 0.0 | 1.0 | 0.00 | 0.49 | 0.03 | 97 | 1009.7 |
| 20260510091600 | 51 | 24 | 0.0 | 1.0 | 0.00 | 0.49 | 0.03 | 97 | 1009.7 |
| 20260510091114 | 51 | 24 | 0.0 | 0.0 | 0.00 | 0.49 | 0.03 | 97 | 1009.6 |
| 20260510090546 | 51 | 24 | 0.0 | 0.0 | 0.00 | 0.49 | 0.03 | 97 | 1009.6 |
| 20260510090059 | 51 | 24 | 0.0 | 0.0 | 0.00 | 0.49 | 0.03 | 97 | 1009.7 |
| 20260510085549 | 51 | 24 | 0.0 | 0.0 | 0.00 | 0.49 | 0.03 | 97 | 1009.7 |
| 20260510085104 | 51 | 24 | 0.0 | 0.0 | 0.00 | 0.49 | 0.03 | 97 | 1009.7 |
| 20260510084555 | 51 | 24 | 0.0 | 1.0 | 0.01 | 0.49 | 0.03 | 97 | 1009.6 |
| 20260510084047 | 51 | 24 | 0.0 | 1.0 | 0.01 | 0.49 | 0.03 | 97 | 1009.7 |
| 20260510083621 | 51 | 24 | 0.0 | 1.0 | 0.01 | 0.49 | 0.03 | 97 | 1009.8 |
| 20260510083052 | 51 | 25 | 0.0 | 1.0 | 0.01 | 0.49 | 0.03 | 97 | 1009.9 |
| 20260510082544 | 51 | 26 | 0.0 | 0.0 | 0.01 | 0.49 | 0.03 | 97 | 1009.9 |
| 20260510082117 | 51 | 234 | 0.0 | 0.0 | 0.01 | 0.49 | 0.03 | 97 | 1009.8 |
| 20260510081549 | 51 | 299 | 0.0 | 0.0 | 0.01 | 0.49 | 0.03 | 97 | 1009.7 |
| 20260510081040 | 51 | 299 | 0.0 | 0.0 | 0.01 | 0.49 | 0.03 | 97 | 1009.6 |
| 20260510080613 | 51 | 300 | 0.0 | 0.0 | 0.01 | 0.49 | 0.03 | 97 | 1009.5 |
| 20260510080043 | 51 | 300 | 0.0 | 0.0 | 0.01 | 0.50 | 0.03 | 97 | 1009.5 |
| 20260510075619 | 51 | 300 | 0.0 | 0.0 | 0.01 | 0.50 | 0.03 | 97 | 1009.2 |
| 20260510075049 | 51 | 300 | 0.0 | 0.0 | 0.01 | 0.50 | 0.03 | 97 | 1009.0 |
| 20260510074542 | 51 | 300 | 0.0 | 0.0 | 0.00 | 0.49 | 0.02 | 97 | 1008.9 |
| 20260510074057 | 51 | 300 | 0.0 | 0.0 | 0.00 | 0.49 | 0.02 | 97 | 1008.9 |
| 20260510073548 | 51 | 300 | 0.0 | 0.0 | 0.00 | 0.49 | 0.02 | 97 | 1008.9 |
| 20260510073042 | 51 | 300 | 0.0 | 0.0 | 0.00 | 0.49 | 0.02 | 97 | 1009.0 |
| 20260510072553 | 51 | 300 | 0.0 | 0.0 | 0.00 | 0.49 | 0.02 | 97 | 1009.0 |
| 20260510072047 | 51 | 300 | 0.0 | 0.0 | 0.00 | 0.49 | 0.02 | 97 | 1009.0 |
| 20260510071540 | 51 | 300 | 0.0 | 0.0 | 0.00 | 0.49 | 0.02 | 97 | 1008.9 |
| 20260510071053 | 51 | 300 | 0.0 | 0.0 | 0.00 | 0.49 | 0.02 | 97 | 1009.1 |
| 20260510070606 | 51 | 300 | 0.0 | 0.0 | 0.00 | 0.49 | 0.02 | 97 | 1009.1 |
| 20260510070059 | 51 | 300 | 0.0 | 0.0 | 0.00 | 0.49 | 0.02 | 97 | 1009.1 |
| 20260510065551 | 51 | 300 | 0.0 | 0.0 | 0.00 | 0.49 | 0.02 | 97 | 1009.1 |
| 20260510065044 | 51 | 300 | 0.0 | 0.0 | 0.00 | 0.49 | 0.02 | 97 | 1009.1 |
| 20260510064556 | 52 | 300 | 0.0 | 0.0 | 0.00 | 0.49 | 0.02 | 97 | 1009.2 |
| 20260510064046 | 51 | 300 | 0.0 | 0.0 | 0.00 | 0.49 | 0.02 | 97 | 1009.2 |
| 20260510063558 | 51 | 300 | 0.0 | 0.0 | 0.00 | 0.49 | 0.02 | 97 | 1009.1 |
| 20260510063109 | 51 | 300 | 0.0 | 0.0 | 0.00 | 0.49 | 0.02 | 97 | 1009.1 |
| 20260510062541 | 52 | 300 | 0.0 | 0.0 | 0.01 | 0.49 | 0.02 | 97 | 1009.1 |
| 20260510062053 | 52 | 300 | 0.0 | 0.0 | 0.01 | 0.49 | 0.02 | 97 | 1009.1 |
| 20260510061544 | 52 | 300 | 0.0 | 0.0 | 0.01 | 0.49 | 0.02 | 97 | 1008.9 |
| 20260510061053 | 52 | 300 | 0.0 | 0.0 | 0.01 | 0.49 | 0.02 | 97 | 1008.9 |
| 20260510060546 | 52 | 300 | 0.0 | 0.0 | 0.01 | 0.49 | 0.02 | 97 | 1008.8 |
| 20260510060058 | 52 | 300 | 0.0 | 0.0 | 0.01 | 0.49 | 0.02 | 97 | 1008.7 |
| 20260510055610 | 52 | 298 | 0.0 | 0.0 | 0.01 | 0.49 | 0.02 | 97 | 1008.7 |
| 20260510055103 | 52 | 299 | 0.0 | 0.0 | 0.01 | 0.49 | 0.02 | 97 | 1008.7 |
| 20260510054555 | 52 | 299 | 0.0 | 0.0 | 0.01 | 0.49 | 0.02 | 97 | 1008.7 |
| 20260510054046 | 52 | 299 | 0.0 | 0.0 | 0.01 | 0.49 | 0.02 | 97 | 1008.7 |
| 20260510053557 | 52 | 299 | 0.0 | 0.0 | 0.01 | 0.49 | 0.02 | 97 | 1008.8 |
| 20260510053109 | 52 | 299 | 0.0 | 0.0 | 0.00 | 0.48 | 0.01 | 97 | 1008.8 |
| 20260510052540 | 52 | 299 | 0.0 | 0.0 | 0.00 | 0.48 | 0.01 | 97 | 1009.0 |
| 20260510052054 | 52 | 299 | 0.0 | 0.0 | 0.00 | 0.48 | 0.01 | 97 | 1009.0 |
| 20260510051607 | 51 | 299 | 0.0 | 0.0 | 0.00 | 0.48 | 0.01 | 97 | 1009.0 |
| 20260510051059 | 51 | 299 | 0.0 | 0.0 | 0.00 | 0.48 | 0.01 | 97 | 1009.0 |
| 20260510050549 | 51 | 299 | 0.0 | 0.0 | 0.01 | 0.48 | 0.01 | 97 | 1009.1 |
| 20260510050040 | 51 | 299 | 0.0 | 0.0 | 0.01 | 0.48 | 0.01 | 97 | 1009.1 |
| 20260510045552 | 51 | 299 | 0.0 | 0.0 | 0.01 | 0.48 | 0.01 | 97 | 1009.1 |
| 20260510045044 | 51 | 299 | 0.0 | 0.0 | 0.01 | 0.48 | 0.01 | 97 | 1009.1 |
| 20260510044556 | 52 | 299 | 0.0 | 0.0 | 0.01 | 0.48 | 0.01 | 97 | 1009.0 |
| 20260510044049 | 52 | 299 | 0.0 | 0.0 | 0.01 | 0.48 | 0.01 | 97 | 1009.0 |
| 20260510043601 | 52 | 299 | 0.0 | 0.0 | 0.01 | 0.48 | 0.01 | 97 | 1009.0 |
| 20260510043049 | 52 | 299 | 0.0 | 0.0 | 0.01 | 0.48 | 0.01 | 97 | 1009.1 |
| 20260510042539 | 52 | 299 | 0.0 | 0.0 | 0.01 | 0.48 | 0.01 | 97 | 1008.9 |
| 20260510042052 | 52 | 299 | 0.0 | 0.0 | 0.01 | 0.48 | 0.01 | 96 | 1008.8 |
| 20260510041605 | 52 | 299 | 0.0 | 0.0 | 0.01 | 0.48 | 0.01 | 96 | 1008.7 |
| 20260510041058 | 52 | 299 | 0.0 | 0.0 | 0.01 | 0.48 | 0.01 | 97 | 1008.8 |
| 20260510040548 | 52 | 299 | 0.0 | 0.0 | 0.00 | 0.47 | 0.00 | 97 | 1008.9 |
| 20260510040039 | 52 | 299 | 0.0 | 0.0 | 0.00 | 0.47 | 0.47 | 96 | 1008.8 |
| 20260510035552 | 52 | 299 | 0.0 | 0.0 | 0.01 | 0.47 | 0.47 | 96 | 1008.7 |
| 20260510035043 | 52 | 299 | 0.0 | 0.0 | 0.01 | 0.47 | 0.47 | 96 | 1008.6 |
| 20260510034558 | 52 | 299 | 0.0 | 0.0 | 0.01 | 0.47 | 0.47 | 97 | 1008.6 |
| 20260510034047 | 52 | 299 | 0.0 | 0.0 | 0.01 | 0.47 | 0.47 | 97 | 1008.6 |
| 20260510033541 | 52 | 299 | 0.0 | 0.0 | 0.01 | 0.47 | 0.47 | 97 | 1008.6 |
| 20260510033053 | 52 | 299 | 0.0 | 0.0 | 0.01 | 0.47 | 0.47 | 97 | 1008.7 |
| 20260510032548 | 52 | 298 | 0.0 | 0.0 | 0.01 | 0.47 | 0.47 | 96 | 1008.8 |
| 20260510032040 | 52 | 298 | 0.0 | 0.0 | 0.01 | 0.47 | 0.47 | 96 | 1008.8 |
| 20260510031554 | 52 | 298 | 0.0 | 0.0 | 0.01 | 0.47 | 0.47 | 96 | 1008.8 |
| 20260510031046 | 52 | 298 | 0.0 | 0.0 | 0.01 | 0.47 | 0.47 | 96 | 1008.8 |
| 20260510030559 | 52 | 298 | 0.0 | 0.0 | 0.02 | 0.47 | 0.47 | 96 | 1008.7 |
| 20260510030049 | 52 | 298 | 0.0 | 0.0 | 0.02 | 0.47 | 0.47 | 96 | 1008.8 |
| 20260510025540 | 52 | 317 | 0.0 | 0.0 | 0.01 | 0.46 | 0.46 | 96 | 1008.9 |
| 20260510025052 | 52 | 317 | 0.0 | 0.0 | 0.01 | 0.46 | 0.46 | 96 | 1008.9 |
| 20260510024543 | 52 | 317 | 0.0 | 0.0 | 0.01 | 0.46 | 0.46 | 96 | 1008.9 |
| 20260510024057 | 52 | 317 | 0.0 | 0.0 | 0.01 | 0.46 | 0.46 | 96 | 1009.0 |
| 20260510023610 | 52 | 317 | 0.0 | 0.0 | 0.01 | 0.46 | 0.46 | 96 | 1008.9 |
| 20260510023041 | 52 | 317 | 0.0 | 0.0 | 0.01 | 0.46 | 0.46 | 96 | 1009.0 |
| 20260510022554 | 52 | 317 | 0.0 | 0.0 | 0.01 | 0.46 | 0.46 | 96 | 1008.9 |
| 20260510022045 | 52 | 310 | 0.0 | 0.0 | 0.02 | 0.46 | 0.46 | 96 | 1009.0 |
| 20260510021615 | 53 | 310 | 0.0 | 0.0 | 0.02 | 0.46 | 0.46 | 96 | 1008.8 |
| 20260510021045 | 52 | 310 | 0.0 | 0.0 | 0.01 | 0.45 | 0.45 | 96 | 1008.8 |
| 20260510020558 | 52 | 310 | 0.0 | 0.0 | 0.01 | 0.45 | 0.45 | 96 | 1008.7 |
| 20260510020051 | 53 | 310 | 0.0 | 0.0 | 0.01 | 0.45 | 0.45 | 96 | 1008.7 |
| 20260510015543 | 53 | 310 | 0.0 | 0.0 | 0.01 | 0.45 | 0.45 | 96 | 1008.8 |
| 20260510015056 | 53 | 309 | 0.0 | 0.0 | 0.02 | 0.45 | 0.45 | 96 | 1008.8 |
| 20260510014550 | 53 | 309 | 0.0 | 0.0 | 0.02 | 0.45 | 0.45 | 96 | 1008.8 |
| 20260510014042 | 53 | 309 | 0.0 | 0.0 | 0.02 | 0.45 | 0.45 | 96 | 1008.7 |
| 20260510013556 | 53 | 309 | 0.0 | 0.0 | 0.02 | 0.45 | 0.45 | 96 | 1008.7 |
| 20260510013048 | 53 | 309 | 0.0 | 0.0 | 0.02 | 0.45 | 0.45 | 96 | 1008.7 |
| 20260510012601 | 53 | 309 | 0.0 | 0.0 | 0.02 | 0.45 | 0.45 | 96 | 1008.7 |
| 20260510012053 | 53 | 309 | 0.0 | 0.0 | 0.01 | 0.44 | 0.44 | 96 | 1008.6 |
| 20260510011544 | 53 | 309 | 0.0 | 0.0 | 0.02 | 0.44 | 0.44 | 96 | 1008.5 |
| 20260510011057 | 53 | 309 | 0.0 | 0.0 | 0.02 | 0.44 | 0.44 | 96 | 1008.4 |
| 20260510010609 | 53 | 309 | 0.0 | 0.0 | 0.02 | 0.44 | 0.44 | 96 | 1008.3 |
| 20260510010039 | 53 | 309 | 0.0 | 0.0 | 0.03 | 0.44 | 0.44 | 96 | 1008.2 |
| 20260510005554 | 53 | 309 | 0.0 | 0.0 | 0.03 | 0.44 | 0.44 | 96 | 1008.2 |
| 20260510005045 | 53 | 309 | 0.0 | 0.0 | 0.02 | 0.43 | 0.43 | 96 | 1008.1 |
| 20260510004619 | 53 | 309 | 0.0 | 0.0 | 0.02 | 0.43 | 0.43 | 96 | 1008.1 |
| 20260510004111 | 53 | 309 | 0.0 | 0.0 | 0.02 | 0.43 | 0.43 | 96 | 1008.2 |
| 20260510003541 | 53 | 310 | 0.0 | 0.0 | 0.03 | 0.43 | 0.43 | 96 | 1008.2 |
| 20260510003053 | 53 | 309 | 0.0 | 0.0 | 0.03 | 0.43 | 0.43 | 96 | 1008.1 |
| 20260510002543 | 53 | 309 | 0.0 | 0.0 | 0.03 | 0.43 | 0.43 | 96 | 1008.0 |
| 20260510002052 | 53 | 309 | 0.0 | 0.0 | 0.03 | 0.43 | 0.43 | 96 | 1008.0 |
| 20260510001545 | 53 | 310 | 0.0 | 0.0 | 0.03 | 0.42 | 0.42 | 96 | 1007.9 |
| 20260510001058 | 54 | 310 | 0.0 | 0.0 | 0.03 | 0.42 | 0.42 | 96 | 1007.9 |
| 20260510000551 | 54 | 310 | 0.0 | 0.0 | 0.03 | 0.42 | 0.42 | 96 | 1007.9 |
| 20260510000043 | 54 | 309 | 0.0 | 0.0 | 0.02 | 0.41 | 0.41 | 96 | 1007.8 |
| 20260509235555 | 54 | 310 | 0.0 | 0.0 | 0.03 | 0.41 | 0.41 | 96 | 1007.9 |
| 20260509235048 | 54 | 309 | 0.0 | 0.0 | 0.03 | 0.41 | 0.41 | 96 | 1008.0 |
| 20260509234539 | 54 | 309 | 0.0 | 0.0 | 0.04 | 0.41 | 0.41 | 96 | 1008.2 |
| 20260509234052 | 54 | 309 | 0.0 | 0.0 | 0.04 | 0.41 | 0.41 | 96 | 1008.2 |
| 20260509233606 | 54 | 309 | 0.0 | 0.0 | 0.03 | 0.40 | 0.40 | 96 | 1008.2 |
| 20260509233056 | 54 | 309 | 0.0 | 0.0 | 0.03 | 0.40 | 0.40 | 96 | 1008.1 |
| 20260509232547 | 54 | 309 | 0.0 | 0.0 | 0.04 | 0.40 | 0.40 | 96 | 1008.1 |
| 20260509232059 | 54 | 309 | 0.0 | 0.0 | 0.04 | 0.40 | 0.40 | 96 | 1008.2 |
| 20260509231548 | 54 | 309 | 0.0 | 0.0 | 0.04 | 0.39 | 0.39 | 96 | 1008.3 |
| 20260509231101 | 54 | 309 | 0.0 | 0.0 | 0.04 | 0.39 | 0.39 | 96 | 1008.2 |
| 20260509230550 | 54 | 309 | 0.0 | 0.0 | 0.05 | 0.39 | 0.39 | 96 | 1008.2 |
| 20260509225552 | 55 | 277 | 0.0 | 0.0 | 0.05 | 0.38 | 0.38 | 96 | 1008.6 |
| 20260509225044 | 55 | 298 | 0.0 | 0.0 | 0.05 | 0.38 | 0.38 | 95 | 1008.4 |
| 20260509224557 | 55 | 299 | 0.0 | 0.0 | 0.04 | 0.37 | 0.37 | 96 | 1008.1 |
| 20260509224112 | 55 | 297 | 0.0 | 0.0 | 0.05 | 0.37 | 0.37 | 95 | 1007.9 |
| 20260509223541 | 55 | 300 | 0.0 | 0.0 | 0.06 | 0.37 | 0.37 | 95 | 1008.2 |
| 20260509223050 | 55 | 300 | 0.0 | 0.0 | 0.05 | 0.36 | 0.36 | 95 | 1008.5 |
| 20260509222600 | 55 | 300 | 0.0 | 0.0 | 0.05 | 0.36 | 0.36 | 95 | 1008.7 |
| 20260509222052 | 55 | 300 | 0.0 | 0.0 | 0.05 | 0.35 | 0.35 | 95 | 1008.7 |
| 20260509221604 | 55 | 300 | 0.0 | 0.0 | 0.05 | 0.35 | 0.35 | 95 | 1008.8 |
| 20260509221058 | 55 | 300 | 0.0 | 0.0 | 0.06 | 0.35 | 0.35 | 95 | 1008.7 |
| 20260509220550 | 55 | 300 | 0.0 | 0.0 | 0.05 | 0.34 | 0.34 | 94 | 1008.7 |
| 20260509220041 | 55 | 300 | 0.0 | 0.0 | 0.06 | 0.34 | 0.34 | 94 | 1009.0 |
| 20260509215553 | 55 | 300 | 0.0 | 0.0 | 0.05 | 0.33 | 0.33 | 95 | 1008.9 |
| 20260509215044 | 55 | 300 | 0.0 | 0.0 | 0.06 | 0.33 | 0.33 | 94 | 1008.8 |
| 20260509214558 | 55 | 300 | 0.0 | 0.0 | 0.06 | 0.33 | 0.33 | 94 | 1008.9 |
| 20260509214048 | 55 | 300 | 0.0 | 0.0 | 0.06 | 0.32 | 0.32 | 94 | 1009.1 |
| 20260509213622 | 56 | 300 | 0.0 | 0.0 | 0.06 | 0.31 | 0.31 | 94 | 1009.1 |
| 20260509213051 | 56 | 300 | 0.0 | 0.0 | 0.06 | 0.31 | 0.31 | 94 | 1009.2 |
| 20260509212543 | 56 | 300 | 0.0 | 0.0 | 0.07 | 0.31 | 0.31 | 94 | 1009.2 |
| 20260509212057 | 56 | 300 | 0.0 | 0.0 | 0.07 | 0.30 | 0.30 | 94 | 1009.1 |
| 20260509211550 | 56 | 300 | 0.0 | 0.0 | 0.07 | 0.30 | 0.30 | 94 | 1009.1 |
| 20260509211041 | 56 | 300 | 0.0 | 0.0 | 0.07 | 0.29 | 0.29 | 94 | 1009.1 |
| 20260509210554 | 56 | 300 | 0.0 | 0.0 | 0.08 | 0.29 | 0.29 | 94 | 1009.0 |
| 20260509210108 | 56 | 300 | 0.0 | 0.0 | 0.08 | 0.28 | 0.28 | 94 | 1008.8 |
| 20260509205559 | 56 | 298 | 0.0 | 0.0 | 0.08 | 0.27 | 0.27 | 94 | 1009.1 |
| 20260509205050 | 56 | 298 | 0.0 | 0.0 | 0.08 | 0.27 | 0.27 | 94 | 1009.1 |
| 20260509204542 | 56 | 298 | 0.0 | 1.0 | 0.09 | 0.26 | 0.26 | 94 | 1009.0 |
| 20260509204051 | 56 | 298 | 0.0 | 1.0 | 0.09 | 0.26 | 0.26 | 94 | 1009.0 |
| 20260509203542 | 56 | 298 | 0.0 | 1.0 | 0.10 | 0.25 | 0.25 | 94 | 1009.0 |
| 20260509203057 | 56 | 294 | 0.0 | 1.0 | 0.10 | 0.25 | 0.25 | 94 | 1008.9 |
| 20260509202550 | 56 | 294 | 0.0 | 1.0 | 0.11 | 0.24 | 0.24 | 94 | 1008.9 |
| 20260509202044 | 56 | 300 | 0.0 | 0.0 | 0.11 | 0.23 | 0.23 | 93 | 1008.7 |
| 20260509201619 | 56 | 331 | 0.0 | 0.0 | 0.12 | 0.23 | 0.23 | 93 | 1008.3 |
| 20260509201113 | 56 | 331 | 0.0 | 0.0 | 0.12 | 0.22 | 0.22 | 93 | 1008.3 |
| 20260509200606 | 56 | 285 | 0.0 | 0.0 | 0.12 | 0.21 | 0.21 | 93 | 1008.9 |
| 20260509200121 | 56 | 284 | 0.0 | 0.0 | 0.13 | 0.21 | 0.20 | 93 | 1009.1 |
| 20260509195550 | 56 | 284 | 0.0 | 0.0 | 0.13 | 0.20 | 0.19 | 93 | 1009.0 |
| 20260509195042 | 56 | 284 | 0.0 | 1.0 | 0.13 | 0.19 | 0.18 | 93 | 1009.0 |
| 20260509194615 | 56 | 298 | 0.0 | 1.0 | 0.12 | 0.18 | 0.17 | 93 | 1009.0 |
| 20260509194046 | 56 | 246 | 0.0 | 1.0 | 0.12 | 0.17 | 0.16 | 93 | 1009.2 |
| 20260509193558 | 56 | 246 | 0.0 | 0.0 | 0.12 | 0.16 | 0.15 | 93 | 1009.3 |
| 20260509193049 | 56 | 246 | 0.0 | 1.0 | 0.12 | 0.15 | 0.14 | 92 | 1009.3 |
| 20260509192540 | 55 | 238 | 0.0 | 1.0 | 0.11 | 0.14 | 0.13 | 92 | 1009.2 |
| 20260509192053 | 56 | 223 | 0.0 | 3.0 | 0.10 | 0.13 | 0.12 | 92 | 1009.4 |
| 20260509191607 | 56 | 232 | 0.0 | 3.0 | 0.10 | 0.12 | 0.11 | 92 | 1009.2 |
| 20260509191055 | 56 | 196 | 0.0 | 1.0 | 0.09 | 0.11 | 0.10 | 92 | 1009.3 |
| 20260509190546 | 56 | 211 | 0.0 | 0.0 | 0.08 | 0.10 | 0.09 | 91 | 1009.2 |
| 20260509190100 | 56 | 239 | 0.0 | 0.0 | 0.06 | 0.08 | 0.07 | 91 | 1009.2 |
| 20260509185550 | 56 | 281 | 0.0 | 1.0 | 0.05 | 0.07 | 0.06 | 90 | 1009.3 |
| 20260509185042 | 56 | 299 | 0.0 | 1.0 | 0.04 | 0.06 | 0.05 | 90 | 1009.4 |
| 20260509184616 | 56 | 283 | 0.0 | 1.0 | 0.03 | 0.05 | 0.04 | 88 | 1009.1 |
| 20260509184047 | 57 | 263 | 0.0 | 1.0 | 0.02 | 0.04 | 0.03 | 87 | 1009.1 |
| 20260509183600 | 58 | 291 | 0.0 | 1.0 | 0.02 | 0.04 | 0.03 | 86 | 1008.8 |
| 20260509183053 | 59 | 279 | 0.0 | 1.0 | 0.01 | 0.03 | 0.02 | 83 | 1008.6 |
| 20260509182549 | 60 | 136 | 0.0 | 3.0 | 0.01 | 0.03 | 0.02 | 79 | 1008.4 |
| 20260509182041 | 60 | 303 | 0.0 | 3.0 | 0.00 | 0.02 | 0.01 | 76 | 1008.3 |
| 20260509181553 | 61 | 84 | 0.0 | 1.0 | 0.00 | 0.02 | 0.01 | 75 | 1008.3 |
| 20260509181045 | 61 | 110 | 0.0 | 1.0 | 0.00 | 0.02 | 0.01 | 75 | 1008.3 |
| 20260509180558 | 62 | 133 | 0.0 | 2.0 | 0.00 | 0.02 | 0.01 | 73 | 1008.3 |
| 20260509180051 | 62 | 218 | 0.0 | 2.0 | 0.00 | 0.02 | 0.01 | 73 | 1008.4 |
| 20260509175543 | 62 | 249 | 0.0 | 1.0 | 0.00 | 0.02 | 0.01 | 72 | 1008.3 |
| 20260509175054 | 63 | 213 | 0.0 | 0.0 | 0.00 | 0.02 | 0.01 | 72 | 1008.3 |